Overview Statistics Trail Chart Weather Telemetry Raw packets
 

This is the latest recevied weather packets stored in our database for station/object DC9VQ-13. If no packets are shown the sender has not sent any weather packets the latest 10 day(s).

<< 13 14 15 16 17 18 19 >>
Time Temp. Humidity Pressure Rain* Wind** Luminosity Snow
1788425995 19.44° C 70% 1021.5 hPa 0 mm - - -
1788425394 18.89° C 70% 1021.6 hPa 0 mm - - -
1788424791 18.89° C 70% 1021.5 hPa 0 mm - - -
1788424189 18.33° C 71% 1021.5 hPa 0 mm - - -
1788423587 17.78° C 73% 1021.5 hPa 0 mm - - -
1788422984 17.78° C 73% 1021.4 hPa 0 mm - - -
1788422383 17.78° C 74% 1021.3 hPa 0 mm - - -
1788421781 17.22° C 75% 1021.4 hPa 0 mm - - -
1788421180 17.22° C 75% 1021.5 hPa 0 mm - - -
1788419975 16.67° C 76% 1021.5 hPa 0 mm - - -
1788419373 16.67° C 76% 1021.6 hPa 0 mm - - -
1788418771 16.11° C 77% 1021.4 hPa 0 mm - - -
1788418168 16.11° C 77% 1021.4 hPa 0 mm - - -
1788417567 16.11° C 77% 1021.5 hPa 0 mm - - -
1788416964 15.56° C 77% 1021.7 hPa 0 mm - - -
1788416363 15.56° C 78% 1021.8 hPa 0 mm - - -
1788415761 15.56° C 79% 1021.8 hPa 0 mm - - -
1788415159 15.56° C 80% 1021.4 hPa 0 mm - - -
1788414559 15.56° C 80% 1021.3 hPa 0 mm - - -
1788413955 15° C 81% 1021.4 hPa 0 mm - - -
1788413353 15° C 81% 1021.5 hPa 0 mm - - -
1788412751 15° C 81% 1021.6 hPa 0 mm - - -
1788412148 14.44° C 81% 1021.6 hPa 0 mm - - -
1788411547 14.44° C 81% 1021.7 hPa 0 mm - - -
1788410945 14.44° C 81% 1021.7 hPa 0 mm - - -

* Rain latest hour (hover to see other rain measurements)
** Current wind speed in m/s (hover to see current wind gust speed)